Stations météo

réclame
Mon MeteoGroup
Logan Botanic Garden, Grande-Bretagne (99193): Température de l'air & dewpoint: 17.03.2019 15:00:00 - 23.03.2019 15:00:00 (GMT)Logan Botanic Garden, Grande-Bretagne (99193): Température de l'air -20cm: 17.03.2019 15:00:00 - 23.03.2019 15:00:00 (GMT)Logan Botanic Garden, Grande-Bretagne (99193): Quantités de précipitations: 17.03.2019 15:00:00 - 23.03.2019 15:00:00 (GMT)
Date & Time tt [°C] td [°C] tt -20cm [°C] rr [mm]
23.03.2019 15:00:00 8,8 2,0 - 0,0
23.03.2019 14:00:00 8,6 2,6 - 0,0
23.03.2019 13:00:00 8,3 1,3 - 0,0
23.03.2019 12:00:00 8,5 3,6 - 0,0
23.03.2019 11:00:00 8,3 3,1 - 0,0
23.03.2019 10:00:00 7,7 3,7 - 0,0
23.03.2019 09:00:00 6,5 3,3 8,5 0,0
23.03.2019 08:00:00 5,6 2,7 - 0,0
23.03.2019 07:00:00 5,3 1,8 - 0,0
23.03.2019 06:00:00 5,3 1,5 - 0,0
23.03.2019 05:00:00 5,5 1,6 - 0,0
23.03.2019 04:00:00 5,8 1,2 - 0,0
23.03.2019 03:00:00 5,9 1,3 - 0,0
23.03.2019 02:00:00 6,4 1,4 - 0,0
23.03.2019 01:00:00 6,4 1,7 - 0,0
23.03.2019 00:00:00 6,5 1,5 - 0,0
22.03.2019 23:00:00 6,7 2,0 - 0,0
22.03.2019 22:00:00 6,9 2,3 - 0,0
22.03.2019 21:00:00 7,3 2,8 - 0,0
22.03.2019 20:00:00 7,8 2,9 - 0,0
22.03.2019 19:00:00 8,0 3,5 - 0,0
22.03.2019 18:00:00 8,8 4,7 - 0,0
22.03.2019 17:00:00 9,2 6,6 - 0,0
22.03.2019 16:00:00 9,5 7,7 - 0,0
22.03.2019 15:00:00 9,0 7,6 - 0,0
22.03.2019 14:00:00 8,4 7,7 - 0,6
22.03.2019 13:00:00 9,0 8,2 - 0,4
22.03.2019 12:00:00 8,8 8,0 - 0,6
22.03.2019 11:00:00 9,0 7,8 - 0,0
22.03.2019 10:00:00 9,3 7,6 - 0,0
22.03.2019 09:00:00 8,9 7,7 8,7 0,0
22.03.2019 08:00:00 9,0 7,8 - 0,0
22.03.2019 07:00:00 9,1 8,0 - 0,0
22.03.2019 06:00:00 9,0 8,6 - 0,0
22.03.2019 05:00:00 9,0 8,7 - 0,0
22.03.2019 04:00:00 8,9 8,3 - 0,0
22.03.2019 03:00:00 8,4 8,0 - 0,0
22.03.2019 02:00:00 8,2 7,7 - 0,0
22.03.2019 01:00:00 8,5 8,1 - 0,0
22.03.2019 00:00:00 8,0 7,7 - 0,0
21.03.2019 23:00:00 8,2 7,8 - 0,0
21.03.2019 22:00:00 8,5 7,6 - 0,0
21.03.2019 21:00:00 8,9 7,3 - 0,0
21.03.2019 20:00:00 9,3 7,8 - 0,0
21.03.2019 19:00:00 9,9 7,9 - 0,0
21.03.2019 18:00:00 10,0 8,2 - 0,0
21.03.2019 17:00:00 10,7 8,3 - 0,0
21.03.2019 16:00:00 10,7 8,7 - 0,0
21.03.2019 15:00:00 10,4 8,7 - 0,0
21.03.2019 14:00:00 10,8 9,2 - 0,0
21.03.2019 13:00:00 10,4 9,1 - 0,0
21.03.2019 12:00:00 10,2 9,2 - 0,0
21.03.2019 11:00:00 10,1 9,1 - 0,0
21.03.2019 10:00:00 9,6 8,8 - 0,0
21.03.2019 09:00:00 9,5 8,8 8,2 0,0
21.03.2019 08:00:00 9,3 8,6 - 0,0
21.03.2019 07:00:00 9,0 8,5 - 0,0
21.03.2019 06:00:00 9,1 8,6 - 0,0
21.03.2019 05:00:00 9,3 8,6 - 0,0
21.03.2019 04:00:00 9,1 8,7 - 0,0
21.03.2019 03:00:00 8,1 7,7 - 0,0
21.03.2019 02:00:00 8,6 8,1 - 0,0
21.03.2019 01:00:00 8,6 8,0 - 0,0
21.03.2019 00:00:00 9,0 8,5 - 0,0
20.03.2019 23:00:00 9,5 9,2 - 0,0
20.03.2019 22:00:00 9,3 9,1 - 0,0
20.03.2019 21:00:00 9,0 8,8 - 0,0
20.03.2019 20:00:00 8,8 8,5 - 0,0
20.03.2019 19:00:00 9,5 8,9 - 0,0
20.03.2019 18:00:00 9,3 9,0 - 0,0
20.03.2019 17:00:00 8,7 8,2 - 0,0
20.03.2019 16:00:00 9,8 8,9 - 0,0
20.03.2019 15:00:00 10,0 8,9 - 0,0
20.03.2019 14:00:00 9,9 9,1 - 0,0
20.03.2019 13:00:00 9,2 8,7 - 0,0
20.03.2019 12:00:00 9,4 8,9 - 0,0
20.03.2019 11:00:00 9,1 8,8 - 0,0
20.03.2019 10:00:00 8,8 8,5 - 0,0
20.03.2019 09:00:00 9,2 8,8 7,9 0,0
20.03.2019 08:00:00 8,6 8,3 - 0,0
20.03.2019 07:00:00 8,7 8,3 - 0,0
20.03.2019 06:00:00 8,7 8,2 - 0,0
20.03.2019 05:00:00 9,2 8,4 - 0,0
20.03.2019 04:00:00 9,1 8,3 - 0,0
20.03.2019 03:00:00 9,3 8,5 - 0,0
20.03.2019 02:00:00 9,1 8,4 - 0,0
20.03.2019 01:00:00 9,2 8,3 - 0,0
20.03.2019 00:00:00 9,6 8,3 - 0,0
19.03.2019 23:00:00 9,2 8,2 - 0,0
19.03.2019 22:00:00 8,8 7,9 - 0,0
19.03.2019 21:00:00 9,2 8,4 - 0,0
19.03.2019 20:00:00 9,0 8,7 - 0,0
19.03.2019 19:00:00 8,6 8,3 - 0,0
19.03.2019 18:00:00 9,1 8,7 - 0,0
19.03.2019 17:00:00 9,1 8,6 - 0,0
19.03.2019 16:00:00 9,0 8,7 - 0,0
19.03.2019 15:00:00 8,4 8,1 - 0,0
19.03.2019 14:00:00 8,3 8,0 - 0,0
19.03.2019 13:00:00 8,3 8,0 - 0,0
19.03.2019 12:00:00 7,8 7,5 - 0,0
19.03.2019 11:00:00 7,6 7,3 - 1,0
19.03.2019 10:00:00 8,0 7,5 - 0,0
19.03.2019 09:00:00 8,1 7,3 7,7 0,0
19.03.2019 08:00:00 7,7 6,8 - 0,0
19.03.2019 07:00:00 7,5 7,0 - 0,0
19.03.2019 06:00:00 7,6 7,4 - 0,0
19.03.2019 05:00:00 7,9 7,7 - 0,2
19.03.2019 04:00:00 7,9 7,7 - 0,0
19.03.2019 03:00:00 8,1 7,8 - 0,0
19.03.2019 02:00:00 8,1 7,8 - 0,0
19.03.2019 01:00:00 8,3 7,9 - 0,4
19.03.2019 00:00:00 8,1 7,6 - 0,0
18.03.2019 23:00:00 7,9 7,4 - 0,0
18.03.2019 22:00:00 7,9 7,4 - 0,0
18.03.2019 21:00:00 8,1 7,5 - 0,0
18.03.2019 20:00:00 8,4 7,5 - 0,0
18.03.2019 19:00:00 8,6 7,5 - 0,0
18.03.2019 18:00:00 9,0 7,4 - 0,0
18.03.2019 17:00:00 9,6 7,8 - 0,0
18.03.2019 16:00:00 9,2 7,9 - 0,0
18.03.2019 15:00:00 8,3 7,8 - 0,0
18.03.2019 14:00:00 8,0 7,7 - 0,2
18.03.2019 13:00:00 7,3 6,7 - 0,6
18.03.2019 12:00:00 6,9 5,9 - 0,2
18.03.2019 11:00:00 6,4 5,6 - 0,2
18.03.2019 10:00:00 6,3 5,4 - 0,2
18.03.2019 09:00:00 6,2 5,1 7,4 0,4
18.03.2019 08:00:00 5,5 4,4 - 0,4
18.03.2019 07:00:00 5,3 4,1 - 0,2
18.03.2019 06:00:00 5,6 4,0 - 0,2
18.03.2019 05:00:00 6,1 3,7 - 0,0
18.03.2019 04:00:00 5,8 3,7 - 0,0
18.03.2019 03:00:00 6,2 3,7 - 0,0
18.03.2019 02:00:00 5,9 3,7 - 0,0
18.03.2019 01:00:00 6,4 3,7 - 0,0
18.03.2019 00:00:00 6,1 3,9 - 0,0
17.03.2019 23:00:00 6,7 3,8 - 0,0
17.03.2019 22:00:00 5,5 2,0 - 0,0
17.03.2019 21:00:00 6,5 1,9 - 0,0
17.03.2019 20:00:00 7,2 3,5 - 0,0
17.03.2019 19:00:00 7,2 3,5 - 0,0
17.03.2019 18:00:00 7,4 2,4 - 0,0
17.03.2019 17:00:00 8,1 4,6 - 0,0
17.03.2019 16:00:00 8,8 3,6 - 0,0
17.03.2019 15:00:00 9,3 3,7 - 0,0

tt = Température de l'air
td = dewpoint
tt -20cm = Température de l'air -20cm
rr = Quantités de précipitations

stations d'obs. à proximité